DELTA 1 DEB, 10470

Orbit data source: Space-Track

DELTA 1 DEB, 10470 is space debris in LEO originally from a launch on Thu, 14 Jul 1977 UTC launched from the Air Force Eastern Test Range (AFETR). Debris objects in space refer to the collection of defunct objects orbiting the Earth. Examples of debris include non-operational satellites, rocket bodies, and fragments generated from explosions, collisions, or faulty payload assembly.

Loading next visibility...
Identifier
10470, 1977-065EC
Orbit
LEO
Country
Flag of USUS
Related business
Manufacturer
Unknown
Mission
Spacecraft
Bus & Motor
Unknown
Mass
Unknown
Launch date (UTC)
1977-07-14 (49 years ago)
Launch vehicle
Unknown
Launch site
Air Force Eastern Test Range (AFETR)
Object type
Payload
Rocket body
Debris
Shape & HBR
Unknown shape, 0.1 m
Radar Cross Section
Medium (>0.1 m² and <1 m²)

Expand to show TLE details & history
Last TLE update: 6 hours ago

TLE from 6 hours ago
0 DELTA 1 DEB
1 10470U 77065EC  26133.17677264  .00001731  00000-0  41049-3 0  9995
2 10470  29.0974  80.2517 0591660  72.2453 294.1770 13.79058173406945
Epoch: 2026-05-13T04:14Z
TLE epoch observation values (Epoch: 2026-05-13T04:14:33.156Z)
Latitude
-0.00003°
Longitude
145.67294°
Altitude
809.847 km
Speed
7.529 km/s
True Right ascension
05h 21m 00s
True Declination
0° 00' 00"
Sunlit
Object was in daylight at epoch
Visualization orbit readout
Latitude
Unknown
Longitude
Unknown
Altitude
Unknown
Speed
Unknown
Apparent Right ascension
Unknown
Apparent Declination
Unknown
Sunlit
N/A
Visualization observer readout
Local Sidereal Time
18:20:20
Azimuth
Unknown
Elevation
Unknown
Doppler factor
Unknown
Orbital elements
Apogee altitude
1,405.951 km
Perigee altitude
536.298 km
Semi-major axis
7,349.262 km
Eccentricity
0.05917
Inclination
29.0974°
RAAN
80.2517°
Arg. of periapsis
72.2453°
True anomaly
287.81199°
Mean anomaly
294.177°
Eccentric anomaly
291.01246°
Mean motion
3.44491 °/min
Orbital period
104.5 mins
BSTAR
0.00041049
Loading maneuver chart data...
Computing Atmospheric mass density...

Documentation

Showing up to 5 results
|